This demonstration page uses our WeatherBlox Daily Observations layout. Learn more.

Left ArrowRight Arrow

Hourly Observations for October 10, 2020

Temp ( °F °C ) Dew Point ( °F °C ) Humidity (%) Winds ( mph kmh ) Pressure ( in mb ) Visibility ( mi km ) Precip ( " mm )
12:15 am 00:15 Clear 58 14.2 43 5.9 58 58 N 6 9 29.83 1010 10 16 N/A
12:35 am 00:35 Clear 59 14.8 43 6.1 56 56 N 7 11 29.83 1010 10 16 N/A
12:55 am 00:55 Clear 56 13.2 43 5.9 62 62 N 7 11 29.83 1010 10 16 N/A
1:15 am 01:15 Clear 58 14.3 43 6.1 58 58 N 9 15 29.84 1010 10 16 N/A
1:35 am 01:35 Clear 58 14.2 43 6 58 58 NNW 7 11 29.83 1010 10 16 N/A
1:55 am 01:55 Clear 56 13.5 42 5.7 60 60 NNW 7 11 29.84 1011 10 16 N/A
2:15 am 02:15 Clear 54 12.4 42 5.4 63 63 N 5 7 29.85 1011 10 16 N/A
2:35 am 02:35 Clear 54 12 42 5.3 64 64 N 3 6 29.87 1011 10 16 N/A
2:55 am 02:55 Clear 51 10.4 41 5 69 69 N 7 11 29.88 1012 10 16 N/A
3:15 am 03:15 Clear 53 11.4 41 4.9 65 65 N 6 9 29.89 1012 10 16 N/A
3:35 am 03:35 Clear 52 11.1 41 4.8 65 65 NNW 7 11 29.88 1012 10 16 N/A
3:55 am 03:55 Clear 50 10 40 4.5 69 69 NNW 7 11 29.89 1012 10 16 N/A
4:15 am 04:15 Clear 49 9.7 40 4.5 70 70 N N/A 29.89 1012 10 16 N/A
4:35 am 04:35 Clear 49 9.5 40 4.4 71 71 NNE 6 9 29.89 1012 10 16 N/A
4:55 am 04:55 Clear 50 10 40 4.5 69 69 N 8 13 29.90 1013 10 16 N/A
5:15 am 05:15 Clear 50 9.9 40 4.7 70 70 N 8 13 29.92 1013 10 16 N/A
5:35 am 05:35 Clear 51 10.5 40 4.7 68 68 N 8 13 29.92 1013 10 16 N/A
5:55 am 05:55 Clear 50 10.1 40 4.7 69 69 N 8 13 29.91 1013 10 16 N/A
6:15 am 06:15 Clear 50 9.8 41 5 72 72 N 6 9 29.93 1014 10 16 N/A
6:35 am 06:35 Clear 50 9.9 41 5.1 72 72 NNW 6 9 29.94 1014 10 16 N/A
6:55 am 06:55 Clear 50 9.8 41 5.1 73 73 N 8 13 29.94 1014 10 16 N/A
7:15 am 07:15 Clear 50 10 42 5.6 74 74 N 9 15 29.96 1015 10 16 N/A
7:35 am 07:35 Clear 50 10.1 42 5.6 74 74 NNE 9 15 29.96 1015 10 16 N/A
7:55 am 07:55 Sunny 49 9.7 42 5.8 77 77 N 6 9 29.97 1015 10 16 N/A
8:15 am 08:15 Sunny 49 9.7 43 6 78 78 N 7 11 29.99 1015 10 16 N/A
8:35 am 08:35 Sunny 51 10.4 43 6.2 75 75 NNE 9 15 29.98 1015 10 16 N/A
8:55 am 08:55 Sunny 53 11.9 44 6.5 70 70 NE 10 17 29.97 1015 10 16 N/A
9:15 am 09:15 Sunny 56 13.6 44 6.7 63 63 NE 14 22 29.94 1014 10 16 N/A
9:35 am 09:35 Sunny 59 15.2 44 6.7 57 57 ENE 14 22 29.93 1013 10 16 N/A
9:55 am 09:55 Sunny 61 16.2 44 6.8 54 54 ENE 13 20 29.93 1014 10 16 N/A
10:15 am 10:15 Sunny 63 17.4 45 7.2 51 51 ENE 10 17 29.92 1013 10 16 N/A
10:35 am 10:35 Sunny 65 18.3 45 7.3 49 49 NE 10 17 29.91 1013 10 16 N/A
10:55 am 10:55 Sunny 67 19.5 45 7.4 46 46 ENE 14 22 29.90 1013 10 16 N/A
11:15 am 11:15 Sunny 70 21 46 7.5 42 42 E 14 22 29.89 1012 10 16 N/A
11:35 am 11:35 Sunny 71 21.9 45 7.4 39 39 ENE 12 19 29.87 1012 10 16 N/A
11:55 am 11:55 Sunny 73 22.9 45 7.1 36 36 ENE 14 22 29.86 1011 10 16 N/A
12:15 pm 12:15 Sunny 74 23.5 44 6.9 34 34 ENE 14 22 29.86 1011 10 16 N/A
12:55 pm 12:55 Sunny 76 24.5 44 6.7 32 32 ESE 15 24 29.85 1011 10 16 N/A
1:15 pm 13:15 Sunny 78 25.3 44 6.7 30 30 E 10 17 29.83 1010 10 16 N/A
1:35 pm 13:35 Sunny 78 25.6 44 6.5 30 30 E 8 13 29.82 1010 10 16 N/A
1:55 pm 13:55 Sunny 79 26 43 6.2 28 28 E 10 17 29.81 1009 10 16 N/A
2:15 pm 14:15 Sunny 79 26.2 43 6.1 28 28 E 10 17 29.80 1009 10 16 N/A
2:35 pm 14:35 Sunny 80 26.6 43 6.1 27 27 ESE 12 19 29.79 1009 10 16 N/A
2:55 pm 14:55 Sunny 80 26.8 43 6 27 27 E 14 22 29.77 1008 10 16 N/A
3:15 pm 15:15 Sunny 81 27.1 43 6.1 26 26 ESE 10 17 29.76 1008 10 16 N/A
3:35 pm 15:35 Sunny 81 27.1 44 6.4 27 27 E 14 22 29.76 1008 10 16 N/A
3:55 pm 15:55 Sunny 81 27.3 44 6.6 27 27 ESE 14 22 29.74 1007 10 16 N/A
4:15 pm 16:15 Sunny 82 27.5 44 6.6 27 27 E 14 22 29.74 1007 10 16 N/A
4:35 pm 16:35 Sunny 81 27.4 45 7 27 27 E 13 20 29.73 1007 10 16 N/A
4:55 pm 16:55 Sunny 81 27.2 44 6.9 28 28 E 16 26 29.72 1006 10 16 N/A
5:15 pm 17:15 Sunny 81 27.1 45 7.1 28 28 SE 10 17 29.72 1006 10 16 N/A
5:35 pm 17:35 Sunny 80 26.6 45 7.3 29 29 ESE 10 17 29.71 1006 10 16 N/A
5:55 pm 17:55 Sunny 79 26.1 46 7.6 31 31 E 12 19 29.72 1006 10 16 N/A
6:15 pm 18:15 Sunny 77 25.2 46 7.7 33 33 E 9 15 29.73 1007 10 16 N/A
6:35 pm 18:35 Sunny 74 23.4 46 7.8 37 37 E 9 15 29.73 1007 10 16 N/A
6:55 pm 18:55 Sunny 70 21.1 46 8 43 43 E 7 11 29.75 1007 10 16 N/A
7:15 pm 19:15 Clear 65 18.5 45 7.4 49 49 ESE 8 13 29.77 1008 10 16 N/A
7:35 pm 19:35 Clear 62 16.9 46 7.5 54 54 ESE 7 11 29.78 1009 10 16 N/A
7:55 pm 19:55 Hazy 62 16.4 46 7.9 57 57 ESE 5 7 29.79 1009 5 8 N/A
8:15 pm 20:15 Hazy 60 15.7 46 7.9 60 60 ESE 7 11 29.79 1009 5 8 N/A
8:35 pm 20:35 Clear 59 14.9 46 8 64 64 ESE 9 15 29.80 1009 7 11 N/A
8:55 pm 20:55 Hazy 58 14.7 47 8.4 66 66 ESE 8 13 29.80 1009 5 8 N/A
9:15 pm 21:15 Clear 60 15.7 49 9.2 65 65 SE 7 11 29.80 1009 7 11 N/A
9:35 pm 21:35 Clear 60 15.6 50 10 70 70 SE 8 13 29.80 1009 10 16 N/A
9:55 pm 21:55 Clear 60 15.6 51 10.6 72 72 SE 8 13 29.80 1009 10 16 N/A
10:15 pm 22:15 Clear 62 16.5 54 12 75 75 SSE 8 13 29.80 1009 10 16 N/A
10:35 pm 22:35 Clear 64 17.8 55 13 74 74 SSE 7 11 29.79 1009 10 16 N/A
10:55 pm 22:55 Clear 63 17.4 56 13.3 77 77 SSE 5 7 29.77 1008 10 16 N/A
11:15 pm 23:15 Clear 63 17.3 56 13.6 79 79 SSE 7 11 29.77 1008 10 16 N/A
11:35 pm 23:35 Clear 63 17.2 57 13.8 81 81 SSE 8 13 29.77 1008 10 16 N/A
11:55 pm 23:55 Clear 62 16.8 57 13.8 83 83 SSE 7 11 29.75 1008 10 16 N/A

Powered by AerisWeather